[[{"header":{"parameterUnit":"m.s-1","parameterCategory":1,"la1":30.2991,"la2":30.254,"lo1":-89.0895,"lo2":-89.0444,"dy":0.0017,"dx":0.0017,"nx":28,"ny":28,"refTime":"2024-08-12T03:00:00:Z","depth":0,"parameterNumber":2,"parameterNumberName":"U-component_of_WINDS"},"data":[0,0,0,0,0,0,0,0,0,0,0,0,0,0,0,0,0,0,0,0,0,0,0,0,0,0,0,0,0,0,0,0,0,0,0,0,0,0,0,0,0,0,0,0,0,0,0,0,0,0,0,0,0,0,0,0,0,0,3.0832,3.0833,0,3.0944,3.0946,3.0947,3.091,3.0907,3.0905,3.0902,3.1017,3.1022,3.1028,0,0,0,0,0,0,0,0,0,0,0,0,0,3.0583,3.0587,3.0832,3.0833,3.0834,3.0944,3.0946,3.0947,3.091,3.0907,3.0904,3.0901,3.1015,3.1022,3.1028,0,0,0,0,0,0,0,0,0,0,0,0,0,3.0693,3.0589,3.0831,3.0829,3.083,3.0944,3.0946,3.0948,3.0911,3.0907,3.0903,3.09,3.1013,3.1021,3.1029,3.1151,0,0,3.1053,3.1057,0,0,0,0,0,0,0,0,3.0686,3.0702,3.0828,3.083,3.0831,3.0909,3.09,3.1016,3.0912,3.088,3.0902,3.0898,3.0984,3.0994,3.1023,3.1157,3.1162,3.1054,3.1059,3.1062,3.1065,0,0,0,0,0,0,0,3.0679,3.0697,3.0876,3.083,3.0832,3.0822,3.0833,3.0922,3.0951,3.0883,3.088,3.0894,3.0984,3.1016,3.1026,3.1163,3.1054,3.1061,3.1066,3.1069,3.14,3.1404,0,0,0,0,0,0,3.0671,3.0691,3.0873,3.088,3.0748,3.0829,3.0842,3.0888,3.095,3.0956,3.0897,3.0892,3.1004,3.1017,3.103,3.1175,3.1062,3.107,3.1074,3.1396,3.1401,3.1405,0,0,0,0,0,0,3.0665,3.0687,3.0868,3.0784,3.0807,3.0838,3.0889,3.0892,3.0923,3.0961,3.0966,3.0924,3.1002,3.1018,3.1121,3.1178,3.1073,3.1081,3.1391,3.1398,3.1403,3.1468,0,0,0,0,0,0,3.0658,3.0686,3.0733,3.0786,3.0811,3.0958,3.0892,3.0897,3.0937,3.0932,3.0988,3.0993,3.1,3.1109,3.1129,3.1188,3.1087,3.1386,3.1394,3.1401,3.1461,3.1475,3.1488,0,0,0,0,0,3.065,3.0747,3.0736,3.0758,3.0871,3.0961,3.0976,3.0982,3.0942,3.0989,3.1013,3.0992,3.117,3.112,3.1142,3.1204,3.1383,3.1392,3.1401,3.1455,3.1473,3.1488,0,0,0,0,0,0,3.07,3.0754,3.0742,3.0859,3.0906,3.0955,3.1015,3.1001,3.106,3.1052,3.1056,3.1069,3.1174,3.1199,3.1143,3.1324,3.127,3.1284,3.1304,3.1321,3.1334,3.1325,3.1093,0,0,0,0,0,3.0725,3.0794,3.0838,3.0937,3.0961,3.0984,3.1024,3.1024,3.1072,3.1092,3.1123,3.1171,3.1237,3.1281,3.1344,3.1465,3.1475,3.1518,3.1532,3.1543,3.1554,3.1617,3.1636,3.1435,3.1435,3.1435,0,0,3.0777,3.0815,3.0859,3.0948,3.0984,3.1055,3.1001,3.1079,3.113,3.1104,3.1201,3.1227,3.128,3.1391,3.1442,3.1416,3.1612,3.1554,3.1563,3.1568,3.1629,3.1648,3.1664,3.1441,3.144,3.1439,0,0,3.0908,3.0944,3.103,3.1067,3.1122,3.1137,3.1158,3.1209,3.1224,3.1322,3.1303,3.1365,3.148,3.1518,3.1552,3.1696,3.1677,3.1716,3.1787,3.1848,3.1864,3.1878,3.1927,3.1945,3.1728,3.1728,3.1728,0,3.0965,3.1071,3.1076,3.1154,3.1193,3.1172,3.1258,3.1294,3.1368,3.1395,3.1365,3.1507,3.1541,3.166,3.1695,3.1724,3.1746,3.1709,3.1862,3.1876,3.1889,3.1935,3.1954,3.1732,3.1732,3.1731,3.1731,0,3.1138,3.1211,3.1274,3.1345,3.1391,3.1473,3.1489,3.1536,3.1532,3.1549,3.1649,3.1689,3.1759,3.1788,3.1786,3.1906,3.1888,3.186,3.1805,3.1912,3.1956,3.1974,3.1738,3.1737,3.1735,3.1734,0,0,3.1303,3.1374,3.1397,3.1428,3.1487,3.1543,3.1624,3.1692,3.1731,3.1782,3.1848,3.1946,3.1919,3.1958,3.196,3.2014,3.2122,3.1979,3.1981,3.2002,3.2255,3.2274,3.2295,3.2111,3.2115,3.2117,3.225,0,3.1436,3.1577,3.1583,3.1712,3.1779,3.1759,3.1829,3.1872,3.1891,3.1949,3.1969,3.2037,3.1999,3.2022,3.2075,3.2098,3.2173,3.2089,3.2171,3.2174,3.2156,3.2318,3.2339,3.2462,3.2267,3.227,3.2272,0,3.1611,3.1666,3.1801,3.1849,3.1877,3.194,3.2002,3.2059,3.2107,3.2116,3.2159,3.2152,3.2233,3.2177,3.2288,3.223,3.2265,3.2281,3.2286,3.2292,3.2228,3.2326,3.2501,3.2519,3.23,3.2297,3.2295,0,3.1715,3.1824,3.1918,3.1945,3.2004,3.2047,3.2074,3.2118,3.2159,3.2213,3.2238,3.2302,3.2336,3.2385,3.2395,3.2353,3.2505,3.245,3.2513,3.2513,3.2544,3.2542,3.2725,3.257,3.257,3.257,3.2569,0,3.1862,3.1944,3.1965,3.2022,3.2114,3.212,3.221,3.2233,3.2273,3.2333,3.2321,3.2379,3.2389,3.2449,3.2457,3.2546,3.2562,3.2571,3.2572,3.2571,3.2569,3.2592,3.2583,3.2575,3.2574,3.2573,3.2572,0,3.1993,3.201,3.2111,3.2157,3.2171,3.2236,3.2276,3.233,3.2347,3.2424,3.2443,3.2469,3.2538,3.2553,3.2635,3.2641,3.2745,3.2739,3.2729,3.2728,3.2789,3.2782,3.2991,3.3018,3.2848,3.285,3.2851,0,3.2084,3.2147,3.22,3.224,3.2268,3.2333,3.2373,3.2382,3.2424,3.2483,3.253,3.2598,3.2652,3.2763,3.2789,3.2851,3.2845,3.2914,3.2854,3.285,3.2843,3.2838,3.2843,3.2925,3.2926,3.2928,3.2929,0,3.2245,3.225,3.2308,3.237,3.2418,3.2468,3.2514,3.2547,3.2562,3.261,3.268,3.2722,3.2806,3.2872,3.2934,3.2961,3.2947,3.2948,3.2965,3.2964,3.2954,3.2958,3.2758,3.2943,3.2941,3.294,3.294,3.2939,3.2357,3.2411,3.2456,3.2522,3.2558,3.2601,3.2654,3.2677,3.2735,3.2803,3.2805,3.2881,3.2926,3.3008,3.3038,3.3097,3.3075,3.3101,3.3107,3.3113,3.3117,3.2947,3.3109,3.3108,3.3108,3.3107,3.3107,0,3.2515,3.2542,3.2603,3.2667,3.2719,3.2702,3.2752,3.2795,3.2862,3.2905,3.2959,3.3038,3.3103,3.3133,3.3196,3.3238,3.3233,3.3254,3.325,3.3255,3.3134,3.3112,3.3256,3.3256,3.3256,3.3256,3.3256,3.3256,3.2602,3.2692,3.2702,3.2809,3.2836,3.291,3.294,3.2979,3.3013,3.3103,3.3156,3.3175,3.3213,3.3278,3.3336,3.3343,3.3366,3.339,3.3394,3.3279,3.3264,3.325,3.3228,3.3395,3.3395,3.3509,3.351,3.3511]},{"header":{"parameterUnit":"m.s-1","parameterCategory":1,"la1":30.2991,"la2":30.254,"lo1":-89.0895,"lo2":-89.0444,"dy":0.0017,"dx":0.0017,"nx":28,"ny":28,"refTime":"2024-08-12T03:00:00:Z","depth":0,"parameterNumber":3,"parameterNumberName":"V-component_of_WINDS"},"data":[0,0,0,0,0,0,0,0,0,0,0,0,0,0,0,0,0,0,0,0,0,0,0,0,0,0,0,0,0,0,0,0,0,0,0,0,0,0,0,0,0,0,0,0,0,0,0,0,0,0,0,0,0,0,0,0,0,0,-0.2492,-0.2492,0,-0.2437,-0.2437,-0.2436,-0.2429,-0.243,-0.2431,-0.2431,-0.2375,-0.2373,-0.2371,0,0,0,0,0,0,0,0,0,0,0,0,0,-0.2592,-0.259,-0.2492,-0.2492,-0.2491,-0.2437,-0.2437,-0.2436,-0.2429,-0.243,-0.2431,-0.2431,-0.2375,-0.2373,-0.2371,0,0,0,0,0,0,0,0,0,0,0,0,0,-0.2544,-0.2589,-0.2492,-0.2481,-0.248,-0.2438,-0.2437,-0.2436,-0.2429,-0.243,-0.2431,-0.2432,-0.2376,-0.2373,-0.237,-0.2335,0,0,-0.2361,-0.236,0,0,0,0,0,0,0,0,-0.2546,-0.254,-0.2483,-0.2482,-0.248,-0.2441,-0.2451,-0.2402,-0.2429,-0.2448,-0.2431,-0.2432,-0.2396,-0.2391,-0.2379,-0.2333,-0.233,-0.2361,-0.2359,-0.2358,-0.2357,0,0,0,0,0,0,0,-0.255,-0.2542,-0.247,-0.2483,-0.2481,-0.2479,-0.2473,-0.2442,-0.2418,-0.2447,-0.2446,-0.244,-0.2395,-0.2382,-0.2378,-0.233,-0.2361,-0.2358,-0.2356,-0.2355,-0.2252,-0.2251,0,0,0,0,0,0,-0.2555,-0.2545,-0.2472,-0.2469,-0.2516,-0.2477,-0.247,-0.2453,-0.2419,-0.2414,-0.2439,-0.244,-0.2387,-0.2382,-0.2376,-0.2333,-0.2358,-0.2355,-0.2353,-0.2253,-0.2252,-0.2251,0,0,0,0,0,0,-0.2557,-0.2549,-0.2474,-0.2507,-0.2497,-0.2474,-0.2455,-0.2451,-0.2438,-0.2413,-0.2409,-0.243,-0.2387,-0.238,-0.2346,-0.2331,-0.2353,-0.2351,-0.2254,-0.2253,-0.2252,-0.2247,0,0,0,0,0,0,-0.256,-0.255,-0.2536,-0.2507,-0.2496,-0.2445,-0.2454,-0.245,-0.2433,-0.2433,-0.2403,-0.2399,-0.2388,-0.235,-0.2343,-0.2327,-0.2348,-0.2256,-0.2254,-0.2252,-0.2249,-0.2246,-0.2244,0,0,0,0,0,-0.2564,-0.2537,-0.2535,-0.2526,-0.2478,-0.2444,-0.2438,-0.2425,-0.2432,-0.2418,-0.2402,-0.24,-0.2334,-0.2347,-0.2338,-0.2322,-0.2256,-0.2254,-0.2252,-0.225,-0.2246,-0.2244,0,0,0,0,0,0,-0.2564,-0.2533,-0.2531,-0.2493,-0.2471,-0.2443,-0.2425,-0.2422,-0.2397,-0.2399,-0.2384,-0.2377,-0.2343,-0.2329,-0.2344,-0.2287,-0.2296,-0.2292,-0.2297,-0.2294,-0.2291,-0.2295,-0.2346,0,0,0,0,0,-0.256,-0.2535,-0.2509,-0.2478,-0.2468,-0.2448,-0.2433,-0.2425,-0.2402,-0.2393,-0.2374,-0.2352,-0.2326,-0.2309,-0.2284,-0.2247,-0.224,-0.2232,-0.2229,-0.2227,-0.2224,-0.2203,-0.2199,-0.2244,-0.2244,-0.2244,0,0,-0.2551,-0.2531,-0.2516,-0.2478,-0.246,-0.2435,-0.244,-0.2413,-0.2394,-0.2388,-0.2355,-0.234,-0.2314,-0.2279,-0.2262,-0.2266,-0.221,-0.2224,-0.2223,-0.2221,-0.2201,-0.2197,-0.2193,-0.2243,-0.2243,-0.2243,0,0,-0.2522,-0.2504,-0.2476,-0.2459,-0.2432,-0.2419,-0.2413,-0.2385,-0.2376,-0.2342,-0.2337,-0.2314,-0.227,-0.2252,-0.2237,-0.2202,-0.22,-0.2195,-0.2181,-0.2162,-0.2158,-0.2155,-0.2142,-0.2138,-0.2191,-0.2191,-0.2191,0,-0.2514,-0.2475,-0.2463,-0.2436,-0.2419,-0.2414,-0.2386,-0.237,-0.2336,-0.2325,-0.233,-0.2275,-0.2257,-0.2217,-0.2209,-0.2197,-0.2189,-0.2197,-0.216,-0.2156,-0.2153,-0.2141,-0.2136,-0.2191,-0.2191,-0.2191,-0.2191,0,-0.2467,-0.244,-0.2421,-0.2389,-0.2371,-0.2344,-0.2328,-0.2311,-0.2305,-0.2292,-0.2258,-0.2237,-0.2207,-0.2197,-0.2191,-0.2157,-0.216,-0.2163,-0.2171,-0.2148,-0.2137,-0.2132,-0.219,-0.219,-0.2191,-0.2191,0,0,-0.2435,-0.2397,-0.239,-0.2376,-0.2347,-0.2326,-0.2299,-0.227,-0.2256,-0.2234,-0.2211,-0.2174,-0.2176,-0.2159,-0.2152,-0.2134,-0.2108,-0.2139,-0.2138,-0.2134,-0.2069,-0.2067,-0.2062,-0.2107,-0.2106,-0.2105,-0.2071,0,-0.2401,-0.2353,-0.2342,-0.23,-0.2276,-0.2271,-0.2247,-0.2227,-0.2214,-0.2192,-0.2178,-0.2152,-0.2158,-0.2147,-0.213,-0.2115,-0.2095,-0.2117,-0.2085,-0.2084,-0.2091,-0.2056,-0.2053,-0.2022,-0.2067,-0.2066,-0.2065,0,-0.2356,-0.2333,-0.2289,-0.2263,-0.2253,-0.2232,-0.2205,-0.2184,-0.2161,-0.2153,-0.2135,-0.2129,-0.2101,-0.2112,-0.2073,-0.2089,-0.2075,-0.2066,-0.2064,-0.206,-0.2073,-0.205,-0.2012,-0.2007,-0.2058,-0.2059,-0.2059,0,-0.2337,-0.2295,-0.2263,-0.2251,-0.222,-0.2206,-0.2192,-0.217,-0.2154,-0.2131,-0.2121,-0.2095,-0.208,-0.2061,-0.2048,-0.2057,-0.2011,-0.2021,-0.2003,-0.2004,-0.1993,-0.1994,-0.1952,-0.1985,-0.1985,-0.1985,-0.1986,0,-0.2301,-0.2274,-0.2254,-0.2235,-0.2205,-0.2192,-0.2163,-0.215,-0.213,-0.2108,-0.2103,-0.2082,-0.2067,-0.2045,-0.2035,-0.2004,-0.1998,-0.1991,-0.1989,-0.1991,-0.1992,-0.1982,-0.1983,-0.1984,-0.1984,-0.1985,-0.1985,0,-0.2274,-0.226,-0.2225,-0.2199,-0.2192,-0.2171,-0.2149,-0.213,-0.2118,-0.2091,-0.2083,-0.2064,-0.2038,-0.2024,-0.199,-0.1984,-0.195,-0.1949,-0.1957,-0.1956,-0.194,-0.1941,-0.1889,-0.1881,-0.192,-0.192,-0.192,0,-0.2252,-0.2231,-0.2203,-0.2188,-0.2175,-0.215,-0.2134,-0.2122,-0.2105,-0.2078,-0.2062,-0.2035,-0.2013,-0.1971,-0.1954,-0.1929,-0.1927,-0.191,-0.1923,-0.1927,-0.1927,-0.1928,-0.1926,-0.1908,-0.1908,-0.1907,-0.1907,0,-0.2213,-0.2208,-0.2184,-0.2159,-0.214,-0.2119,-0.2098,-0.2086,-0.2071,-0.2052,-0.2025,-0.2008,-0.1974,-0.1948,-0.1921,-0.1908,-0.1905,-0.1903,-0.1898,-0.19,-0.1906,-0.1903,-0.1951,-0.1904,-0.1905,-0.1905,-0.1905,-0.1905,-0.2188,-0.217,-0.2147,-0.2122,-0.2105,-0.2086,-0.2068,-0.2053,-0.2031,-0.2002,-0.1996,-0.1968,-0.1946,-0.191,-0.1896,-0.1874,-0.1877,-0.1869,-0.1867,-0.1866,-0.1865,-0.191,-0.1869,-0.1869,-0.1869,-0.1869,-0.1869,0,-0.2149,-0.2135,-0.2112,-0.2083,-0.2064,-0.2063,-0.2041,-0.2024,-0.1999,-0.1979,-0.1957,-0.1927,-0.1901,-0.1883,-0.1857,-0.1843,-0.1841,-0.1836,-0.1837,-0.1834,-0.1863,-0.187,-0.1838,-0.1838,-0.1838,-0.1838,-0.1838,-0.1838,-0.2127,-0.2096,-0.2087,-0.2048,-0.2034,-0.2006,-0.1994,-0.1976,-0.196,-0.1926,-0.1905,-0.1894,-0.1874,-0.1847,-0.1824,-0.182,-0.181,-0.1806,-0.1801,-0.1829,-0.1832,-0.1835,-0.1842,-0.1804,-0.1804,-0.1774,-0.1773,-0.1773]}]]